ELY5215 LLBG-LGKF

Flight info

Callsign ELY5215
Flight time 2h 3m
Altitude 40000
Route LLBG/26 N0432F400 SUVA1E SUVAS L53 ANIDE UL53 MADEX UM601 KFN DCT LGKF/32
Aircraft B738/M-VGDW/C

Departure

Time 2026-04-24 14:15
Airport Ben Gurion International Airport (LLBG)

Arrival

Time 2026-04-24 16:18
Airport Kefallinia Airport (LGKF)
Time Latitude Longitude Altitude Speed Heading
2026-04-24 13:57 32.00418 34.87614 119 ft 0 kts 238°
2026-04-24 14:04 32.00420 34.87617 119 ft 3 kts 238°
2026-04-24 14:04 32.00434 34.87644 117 ft 4 kts 238°
2026-04-24 14:05 32.00447 34.87671 115 ft 4 kts 243°
2026-04-24 14:05 32.00454 34.87692 114 ft 2 kts 274°
2026-04-24 14:05 32.00450 34.87705 116 ft 2 kts 328°
2026-04-24 14:05 32.00430 34.87714 116 ft 4 kts 346°
2026-04-24 14:06 32.00442 34.87710 117 ft 4 kts 346°
2026-04-24 14:06 32.00462 34.87705 114 ft 2 kts 346°
2026-04-24 14:06 32.00472 34.87702 116 ft 1 kts 346°
2026-04-24 14:06 32.00482 34.87699 116 ft 1 kts 346°
2026-04-24 14:09 32.00485 34.87698 119 ft 3 kts 346°
2026-04-24 14:09 32.00532 34.87684 115 ft 10 kts 348°
2026-04-24 14:09 32.00600 34.87709 116 ft 11 kts 32°
2026-04-24 14:10 32.00627 34.87779 119 ft 11 kts 112°
2026-04-24 14:10 32.00591 34.87853 118 ft 10 kts 120°
2026-04-24 14:10 32.00592 34.87921 117 ft 6 kts 46°
2026-04-24 14:10 32.00626 34.87946 119 ft 6 kts 32°
2026-04-24 14:11 32.00645 34.87960 117 ft 0 kts 31°
2026-04-24 14:11 32.00648 34.87962 117 ft 1 kts 31°
2026-04-24 14:11 32.00855 34.88109 116 ft 29 kts 31°
2026-04-24 14:12 32.01023 34.88233 118 ft 27 kts 32°
2026-04-24 14:12 32.01180 34.88346 120 ft 26 kts 31°
2026-04-24 14:12 32.01317 34.88467 117 ft 24 kts 44°
2026-04-24 14:12 32.01418 34.88614 119 ft 23 kts 57°
2026-04-24 14:13 32.01483 34.88779 118 ft 22 kts 72°
2026-04-24 14:13 32.01515 34.88972 116 ft 25 kts 79°
2026-04-24 14:13 32.01563 34.89153 117 ft 17 kts 38°
2026-04-24 14:13 32.01673 34.89148 115 ft 17 kts 348°
2026-04-24 14:14 32.01742 34.89051 118 ft 17 kts 260°
2026-04-24 14:14 32.01712 34.88867 120 ft 45 kts 259°
2026-04-24 14:14 32.01435 34.87044 149 ft 167 kts 263°
2026-04-24 14:15 32.01209 34.85647 712 ft 178 kts 265°
2026-04-24 14:15 32.00975 34.84162 1319 ft 191 kts 263°
2026-04-24 14:15 32.00720 34.82595 2047 ft 199 kts 264°
2026-04-24 14:15 32.00441 34.80933 2746 ft 211 kts 259°
2026-04-24 14:16 32.00036 34.79169 3116 ft 237 kts 256°
2026-04-24 14:16 31.99564 34.77172 3410 ft 266 kts 256°
2026-04-24 14:16 31.99246 34.75027 4113 ft 273 kts 275°
2026-04-24 14:17 32.00382 34.70805 5952 ft 273 kts 291°
2026-04-24 14:17 32.01059 34.68687 6780 ft 276 kts 291°
2026-04-24 14:17 32.02394 34.64445 7918 ft 276 kts 289°
2026-04-24 14:18 32.02817 34.62251 7991 ft 275 kts 275°
2026-04-24 14:18 32.02928 34.59998 8006 ft 276 kts 272°
2026-04-24 14:18 32.03006 34.57725 8017 ft 280 kts 272°
2026-04-24 14:18 32.03103 34.55430 8020 ft 281 kts 273°
2026-04-24 14:19 32.03176 34.53910 8014 ft 280 kts 273°
2026-04-24 14:19 32.03329 34.50898 8070 ft 279 kts 274°
2026-04-24 14:19 32.03449 34.48587 8694 ft 282 kts 273°
2026-04-24 14:19 32.03568 34.46319 9900 ft 274 kts 272°
2026-04-24 14:20 32.03688 34.44051 10624 ft 284 kts 273°
2026-04-24 14:20 32.03824 34.41619 10867 ft 311 kts 273°
2026-04-24 14:20 32.03976 34.38980 11198 ft 331 kts 273°
2026-04-24 14:20 32.04134 34.36242 11889 ft 338 kts 273°
2026-04-24 14:21 32.04295 34.33460 12729 ft 341 kts 273°
2026-04-24 14:21 32.04456 34.30655 13595 ft 345 kts 273°
2026-04-24 14:21 32.04617 34.27807 14362 ft 350 kts 272°
2026-04-24 14:21 32.04782 34.24933 15200 ft 352 kts 274°
2026-04-24 14:22 32.05336 34.22103 16019 ft 360 kts 291°
2026-04-24 14:22 32.06532 34.19490 16864 ft 365 kts 297°
2026-04-24 14:22 32.09213 34.14344 18376 ft 375 kts 298°
2026-04-24 14:23 32.10585 34.11713 19089 ft 377 kts 297°
2026-04-24 14:23 32.11953 34.09056 19791 ft 380 kts 297°
2026-04-24 14:23 32.13325 34.06364 20503 ft 383 kts 296°
2026-04-24 14:23 32.14699 34.03654 21186 ft 386 kts 296°
2026-04-24 14:24 32.16082 34.00919 21854 ft 389 kts 296°
2026-04-24 14:24 32.17436 33.98174 22502 ft 391 kts 294°
2026-04-24 14:24 32.18691 33.95305 23135 ft 393 kts 292°
2026-04-24 14:24 32.19887 33.92386 23711 ft 396 kts 291°
2026-04-24 14:25 32.20673 33.90433 24043 ft 398 kts 291°
2026-04-24 14:25 32.22270 33.86457 24756 ft 402 kts 291°
2026-04-24 14:25 32.23480 33.83467 25274 ft 404 kts 291°
2026-04-24 14:25 32.24703 33.80464 25776 ft 407 kts 291°
2026-04-24 14:26 32.25940 33.77442 26267 ft 410 kts 291°
2026-04-24 14:26 32.27174 33.74434 26728 ft 412 kts 291°
2026-04-24 14:26 32.28434 33.71370 27203 ft 415 kts 291°
2026-04-24 14:26 32.29699 33.68293 27660 ft 417 kts 291°
2026-04-24 14:27 32.30972 33.65194 28104 ft 420 kts 291°
2026-04-24 14:27 32.32254 33.62071 28535 ft 423 kts 291°
2026-04-24 14:27 32.33541 33.58936 28955 ft 425 kts 291°
2026-04-24 14:27 32.34821 33.55812 29359 ft 428 kts 291°
2026-04-24 14:28 32.36125 33.52626 29765 ft 430 kts 290°
2026-04-24 14:28 32.37431 33.49433 30120 ft 433 kts 290°
2026-04-24 14:28 32.38749 33.46209 30435 ft 435 kts 290°
2026-04-24 14:28 32.40068 33.42978 30753 ft 437 kts 290°
2026-04-24 14:29 32.41392 33.39734 31085 ft 438 kts 290°
2026-04-24 14:29 32.42717 33.36484 31520 ft 437 kts 290°
2026-04-24 14:29 32.44035 33.33252 32015 ft 434 kts 290°
2026-04-24 14:29 32.45345 33.30039 32501 ft 432 kts 290°
2026-04-24 14:30 32.46211 33.27909 32784 ft 431 kts 290°
2026-04-24 14:30 32.47936 33.23661 33315 ft 430 kts 290°
2026-04-24 14:30 32.49232 33.20466 33752 ft 429 kts 290°
2026-04-24 14:30 32.50520 33.17287 34157 ft 427 kts 290°
2026-04-24 14:31 32.51807 33.14109 34506 ft 427 kts 290°
2026-04-24 14:31 32.53074 33.10976 34834 ft 426 kts 290°
2026-04-24 14:31 32.54357 33.07801 35189 ft 425 kts 290°
2026-04-24 14:31 32.55632 33.04644 35542 ft 424 kts 290°
2026-04-24 14:32 32.56904 33.01492 35887 ft 423 kts 290°
2026-04-24 14:32 32.58176 32.98337 36227 ft 422 kts 290°
2026-04-24 14:32 32.59442 32.95194 36570 ft 421 kts 290°
2026-04-24 14:32 32.60703 32.92058 36916 ft 420 kts 290°
2026-04-24 14:33 32.61960 32.88934 37261 ft 419 kts 290°
2026-04-24 14:33 32.63213 32.85813 37586 ft 418 kts 290°
2026-04-24 14:33 32.64462 32.82701 37916 ft 417 kts 290°
2026-04-24 14:33 32.65707 32.79595 38257 ft 416 kts 290°
2026-04-24 14:34 32.66933 32.76534 38564 ft 415 kts 290°
2026-04-24 14:34 32.68174 32.73433 38797 ft 414 kts 290°
2026-04-24 14:34 32.69409 32.70345 39002 ft 414 kts 290°
2026-04-24 14:34 32.70646 32.67246 39179 ft 415 kts 290°
2026-04-24 14:35 32.71886 32.64137 39361 ft 416 kts 290°
2026-04-24 14:35 32.73125 32.61032 39591 ft 415 kts 290°
2026-04-24 14:35 32.74345 32.57968 39780 ft 415 kts 290°
2026-04-24 14:35 32.75583 32.54858 39902 ft 416 kts 290°
2026-04-24 14:36 32.76823 32.51740 39911 ft 418 kts 290°
2026-04-24 14:36 32.78885 32.46551 39913 ft 416 kts 290°
2026-04-24 14:37 32.81359 32.40352 39917 ft 414 kts 292°
2026-04-24 14:37 32.84497 32.34543 39916 ft 417 kts 300°
2026-04-24 14:38 32.87819 32.28899 39921 ft 416 kts 300°
2026-04-24 14:38 32.91107 32.23280 39922 ft 415 kts 300°
2026-04-24 14:39 32.94385 32.17630 39917 ft 416 kts 299°
2026-04-24 14:39 32.97681 32.11920 39930 ft 418 kts 299°
2026-04-24 14:40 33.00984 32.06185 39925 ft 420 kts 300°
2026-04-24 14:40 33.04279 32.00454 39917 ft 422 kts 300°
2026-04-24 14:41 33.07609 31.94656 39919 ft 424 kts 300°
2026-04-24 14:41 33.10951 31.88827 39924 ft 426 kts 300°
2026-04-24 14:42 33.14302 31.82975 39920 ft 427 kts 300°
2026-04-24 14:42 33.17637 31.77141 39913 ft 427 kts 300°
2026-04-24 14:43 33.20988 31.71270 39919 ft 427 kts 300°
2026-04-24 14:43 33.24334 31.65399 39918 ft 427 kts 300°
2026-04-24 14:44 33.27644 31.59581 39917 ft 426 kts 300°
2026-04-24 14:44 33.30973 31.53721 39919 ft 425 kts 300°
2026-04-24 14:45 33.34285 31.47879 39921 ft 424 kts 300°
2026-04-24 14:45 33.37589 31.42044 39920 ft 423 kts 299°
2026-04-24 14:46 33.40862 31.36254 39919 ft 422 kts 299°
2026-04-24 14:46 33.44154 31.30420 39921 ft 421 kts 299°
2026-04-24 14:47 33.47431 31.24604 39922 ft 421 kts 299°
2026-04-24 14:47 33.50706 31.18783 39921 ft 421 kts 299°
2026-04-24 14:48 33.53955 31.13000 39922 ft 421 kts 299°
2026-04-24 14:48 33.57223 31.07171 39924 ft 421 kts 299°
2026-04-24 14:49 33.60497 31.01324 39924 ft 421 kts 299°
2026-04-24 14:49 33.63743 30.95518 39923 ft 421 kts 299°
2026-04-24 14:50 33.67015 30.89656 39924 ft 422 kts 299°
2026-04-24 14:50 33.70289 30.83781 39924 ft 422 kts 299°
2026-04-24 14:51 33.73541 30.77935 39926 ft 423 kts 299°
2026-04-24 14:51 33.76809 30.72053 39924 ft 423 kts 298°
2026-04-24 14:52 33.80078 30.66157 39924 ft 423 kts 298°
2026-04-24 14:52 33.83329 30.60285 39921 ft 423 kts 298°
2026-04-24 14:53 33.86593 30.54381 39925 ft 424 kts 298°
2026-04-24 14:53 33.89859 30.48463 39925 ft 424 kts 298°
2026-04-24 14:54 33.93100 30.42581 39915 ft 423 kts 298°
2026-04-24 14:54 33.96356 30.36662 39922 ft 423 kts 298°
2026-04-24 14:55 33.99062 30.31734 39928 ft 423 kts 298°
2026-04-24 14:55 34.02840 30.24845 39929 ft 423 kts 298°
2026-04-24 14:56 34.06088 30.18911 39930 ft 422 kts 298°
2026-04-24 14:56 34.09303 30.13027 39923 ft 422 kts 298°
2026-04-24 14:57 34.12531 30.07109 39928 ft 422 kts 298°
2026-04-24 14:57 34.15751 30.01198 39926 ft 421 kts 298°
2026-04-24 14:58 34.19185 29.95430 39922 ft 424 kts 302°
2026-04-24 14:58 34.22817 29.89814 39929 ft 424 kts 302°
2026-04-24 14:59 34.26453 29.84188 39928 ft 423 kts 302°
2026-04-24 14:59 34.30035 29.78583 39929 ft 423 kts 302°
2026-04-24 15:00 34.33627 29.72922 39924 ft 423 kts 302°
2026-04-24 15:00 34.37185 29.67301 39926 ft 423 kts 302°
2026-04-24 15:01 34.40763 29.61637 39929 ft 423 kts 302°
2026-04-24 15:01 34.44341 29.55966 39926 ft 423 kts 302°
2026-04-24 15:02 34.47914 29.50295 39933 ft 423 kts 302°
2026-04-24 15:02 34.51483 29.44620 39934 ft 423 kts 302°
2026-04-24 15:03 34.55034 29.38965 39930 ft 423 kts 302°
2026-04-24 15:03 34.58601 29.33277 39933 ft 423 kts 302°
2026-04-24 15:04 34.62166 29.27582 39936 ft 423 kts 302°
2026-04-24 15:04 34.65707 29.21916 39933 ft 423 kts 302°
2026-04-24 15:05 34.69268 29.16210 39935 ft 423 kts 302°
2026-04-24 15:05 34.72823 29.10504 39935 ft 423 kts 302°
2026-04-24 15:06 34.76345 29.04822 39938 ft 423 kts 302°
2026-04-24 15:06 34.79896 28.99111 39941 ft 423 kts 302°
2026-04-24 15:07 34.83445 28.93395 39935 ft 422 kts 302°
2026-04-24 15:07 34.86963 28.87715 39941 ft 422 kts 302°
2026-04-24 15:08 34.90500 28.81991 39938 ft 422 kts 302°
2026-04-24 15:08 34.94028 28.76272 39937 ft 422 kts 301°
2026-04-24 15:09 34.97542 28.70566 39940 ft 422 kts 301°
2026-04-24 15:09 35.01064 28.64841 39943 ft 422 kts 301°
2026-04-24 15:10 35.04250 28.58866 39951 ft 418 kts 296°
2026-04-24 15:10 35.07237 28.52754 39939 ft 419 kts 296°
2026-04-24 15:11 35.10233 28.46683 39938 ft 419 kts 296°
2026-04-24 15:11 35.13265 28.40583 39937 ft 420 kts 296°
2026-04-24 15:12 35.16292 28.34471 39933 ft 420 kts 296°
2026-04-24 15:12 35.20799 28.25322 39939 ft 420 kts 296°
2026-04-24 15:13 35.23822 28.19170 39935 ft 421 kts 296°
2026-04-24 15:13 35.26823 28.13056 39941 ft 422 kts 296°
2026-04-24 15:14 35.29846 28.06885 39941 ft 422 kts 296°
2026-04-24 15:14 35.32870 28.00702 39938 ft 423 kts 296°
2026-04-24 15:15 35.35873 27.94549 39939 ft 423 kts 296°
2026-04-24 15:15 35.38896 27.88347 39944 ft 423 kts 296°
2026-04-24 15:16 35.41919 27.82131 39939 ft 424 kts 296°
2026-04-24 15:16 35.44921 27.75950 39938 ft 424 kts 296°
2026-04-24 15:17 35.47934 27.69734 39938 ft 424 kts 296°
2026-04-24 15:17 35.50947 27.63506 39942 ft 423 kts 296°
2026-04-24 15:18 35.53951 27.57285 39940 ft 423 kts 296°
2026-04-24 15:18 35.56934 27.51097 39940 ft 423 kts 296°
2026-04-24 15:19 35.59928 27.44874 39937 ft 422 kts 296°
2026-04-24 15:19 35.62920 27.38646 39942 ft 422 kts 296°
2026-04-24 15:20 35.65889 27.32451 39938 ft 422 kts 296°
2026-04-24 15:20 35.68869 27.26225 39941 ft 422 kts 296°
2026-04-24 15:21 35.71850 27.19984 39939 ft 422 kts 296°
2026-04-24 15:21 35.74823 27.13748 39943 ft 422 kts 296°
2026-04-24 15:22 35.77780 27.07533 39948 ft 423 kts 296°
2026-04-24 15:23 35.82252 26.98106 39944 ft 424 kts 295°
2026-04-24 15:23 35.86083 26.88327 39948 ft 424 kts 291°
2026-04-24 15:25 35.92440 26.73168 39958 ft 430 kts 300°
2026-04-24 15:26 36.00990 26.57931 39950 ft 434 kts 301°
2026-04-24 15:27 36.11213 26.39425 39954 ft 436 kts 301°
2026-04-24 15:29 36.21486 26.20713 39954 ft 439 kts 301°
2026-04-24 15:31 36.33482 25.98729 39957 ft 442 kts 301°
2026-04-24 15:33 36.47247 25.73360 39962 ft 444 kts 301°
2026-04-24 15:34 36.55834 25.57439 39966 ft 444 kts 301°
2026-04-24 15:35 36.64246 25.41398 39957 ft 441 kts 293°
2026-04-24 15:36 36.66105 25.34179 39966 ft 436 kts 277°
2026-04-24 15:36 36.67390 25.22942 39968 ft 436 kts 277°
2026-04-24 15:37 36.68289 25.15507 39968 ft 437 kts 277°
2026-04-24 15:37 36.69086 25.07989 39973 ft 437 kts 276°
2026-04-24 15:38 36.69870 25.00465 39968 ft 437 kts 276°
2026-04-24 15:38 36.70656 24.92980 39972 ft 438 kts 276°
2026-04-24 15:39 36.71428 24.85435 39969 ft 438 kts 276°
2026-04-24 15:39 36.72194 24.77884 39973 ft 438 kts 276°
2026-04-24 15:40 36.72952 24.70381 39974 ft 439 kts 276°
2026-04-24 15:40 36.73712 24.62816 39976 ft 439 kts 276°
2026-04-24 15:41 36.74468 24.55247 39977 ft 439 kts 276°
2026-04-24 15:41 36.75939 24.47860 39981 ft 441 kts 290°
2026-04-24 15:42 36.78208 24.40733 39974 ft 442 kts 291°
2026-04-24 15:42 36.80467 24.33651 39980 ft 442 kts 290°
2026-04-24 15:43 36.82702 24.26489 39982 ft 442 kts 290°
2026-04-24 15:43 36.84917 24.19316 39981 ft 443 kts 290°
2026-04-24 15:44 36.87116 24.12176 39984 ft 443 kts 290°
2026-04-24 15:44 36.89330 24.04975 39982 ft 443 kts 290°
2026-04-24 15:45 36.91542 23.97765 39982 ft 443 kts 290°
2026-04-24 15:45 36.93741 23.90611 39986 ft 443 kts 290°
2026-04-24 15:46 36.95957 23.83395 39988 ft 444 kts 290°
2026-04-24 15:46 36.98166 23.76179 39988 ft 444 kts 290°
2026-04-24 15:47 37.00372 23.68948 39991 ft 444 kts 290°
2026-04-24 15:47 37.02562 23.61755 39985 ft 445 kts 290°
2026-04-24 15:48 37.04763 23.54504 39986 ft 445 kts 290°
2026-04-24 15:48 37.06962 23.47242 39993 ft 446 kts 290°
2026-04-24 15:49 37.09144 23.40019 39993 ft 446 kts 290°
2026-04-24 15:49 37.11338 23.32737 39994 ft 447 kts 290°
2026-04-24 15:50 37.13529 23.25437 39992 ft 447 kts 290°
2026-04-24 15:50 37.15713 23.18121 39992 ft 448 kts 290°
2026-04-24 15:51 37.17880 23.10833 39992 ft 448 kts 290°
2026-04-24 15:51 37.20063 23.03477 39991 ft 449 kts 290°
2026-04-24 15:52 37.22240 22.96126 39987 ft 450 kts 290°
2026-04-24 15:52 37.24402 22.88801 39990 ft 450 kts 290°
2026-04-24 15:53 37.26577 22.81416 39992 ft 451 kts 290°
2026-04-24 15:53 37.28751 22.74013 39986 ft 452 kts 290°
2026-04-24 15:54 37.30911 22.66641 39986 ft 452 kts 290°
2026-04-24 15:54 37.33084 22.59201 39981 ft 453 kts 291°
2026-04-24 15:55 37.35256 22.51743 39978 ft 453 kts 291°
2026-04-24 15:55 37.37412 22.44321 39980 ft 454 kts 291°
2026-04-24 15:56 37.39582 22.36834 39979 ft 454 kts 291°
2026-04-24 15:56 37.42004 22.29514 39468 ft 460 kts 297°
2026-04-24 15:57 37.43435 22.25908 38914 ft 459 kts 298°
2026-04-24 15:57 37.44901 22.22331 38219 ft 459 kts 299°
2026-04-24 15:57 37.45875 22.19968 37736 ft 459 kts 299°
2026-04-24 15:57 37.47825 22.15190 36837 ft 458 kts 299°
2026-04-24 15:58 37.49264 22.11615 36177 ft 456 kts 299°
2026-04-24 15:58 37.50686 22.08046 35483 ft 456 kts 299°
2026-04-24 15:58 37.52105 22.04462 34754 ft 457 kts 300°
2026-04-24 15:58 37.53522 22.00865 33989 ft 460 kts 300°
2026-04-24 15:59 37.54940 21.97259 33363 ft 456 kts 300°
2026-04-24 15:59 37.56322 21.93736 32759 ft 452 kts 300°
2026-04-24 15:59 37.57707 21.90200 32201 ft 447 kts 300°
2026-04-24 15:59 37.59080 21.86694 31659 ft 442 kts 300°
2026-04-24 16:00 37.60437 21.83225 31120 ft 438 kts 300°
2026-04-24 16:00 37.61782 21.79787 30603 ft 434 kts 301°
2026-04-24 16:00 37.63093 21.76433 30086 ft 430 kts 301°
2026-04-24 16:00 37.64413 21.73051 29491 ft 426 kts 301°
2026-04-24 16:01 37.65718 21.69705 28910 ft 421 kts 301°
2026-04-24 16:01 37.67004 21.66403 28389 ft 416 kts 301°
2026-04-24 16:01 37.68277 21.63143 27858 ft 410 kts 301°
2026-04-24 16:01 37.69528 21.59926 27324 ft 406 kts 301°
2026-04-24 16:02 37.70751 21.56776 26808 ft 403 kts 301°
2026-04-24 16:02 37.71980 21.53605 26279 ft 399 kts 301°
2026-04-24 16:02 37.73193 21.50472 25792 ft 395 kts 300°
2026-04-24 16:02 37.74398 21.47361 25283 ft 392 kts 300°
2026-04-24 16:03 37.75593 21.44271 24779 ft 389 kts 300°
2026-04-24 16:03 37.76776 21.41209 24295 ft 385 kts 300°
2026-04-24 16:03 37.77947 21.38176 23796 ft 382 kts 300°
2026-04-24 16:03 37.79092 21.35208 23257 ft 380 kts 300°
2026-04-24 16:04 37.80247 21.32213 22700 ft 377 kts 300°
2026-04-24 16:04 37.81393 21.29234 22180 ft 373 kts 300°
2026-04-24 16:04 37.82529 21.26280 21690 ft 369 kts 300°
2026-04-24 16:04 37.83649 21.23364 21199 ft 366 kts 300°
2026-04-24 16:05 37.85844 21.17643 20249 ft 360 kts 300°
2026-04-24 16:05 37.86935 21.14797 19776 ft 358 kts 300°
2026-04-24 16:06 37.89095 21.09151 18842 ft 354 kts 300°
2026-04-24 16:06 37.90163 21.06356 18387 ft 352 kts 300°
2026-04-24 16:06 37.92286 21.00793 17359 ft 348 kts 299°
2026-04-24 16:07 37.93320 20.98081 16880 ft 345 kts 299°
2026-04-24 16:07 37.94360 20.95346 16415 ft 343 kts 299°
2026-04-24 16:07 37.96415 20.89941 15505 ft 338 kts 299°
2026-04-24 16:08 37.97430 20.87268 15055 ft 334 kts 299°
2026-04-24 16:08 37.98626 20.81730 13648 ft 337 kts 271°
2026-04-24 16:09 37.97379 20.76053 11896 ft 341 kts 234°
2026-04-24 16:09 37.95674 20.74025 11150 ft 336 kts 211°
2026-04-24 16:09 37.94277 20.73213 10660 ft 332 kts 195°
2026-04-24 16:09 37.91271 20.73080 9680 ft 322 kts 163°
2026-04-24 16:10 37.85224 20.75575 7438 ft 313 kts 194°
2026-04-24 16:11 37.82142 20.72343 7181 ft 282 kts 243°
2026-04-24 16:11 37.81618 20.70003 6935 ft 274 kts 266°
2026-04-24 16:11 37.81670 20.68406 6642 ft 274 kts 282°
2026-04-24 16:12 37.83582 20.64443 5784 ft 265 kts 326°
2026-04-24 16:12 37.85734 20.63148 5378 ft 253 kts 350°
2026-04-24 16:12 37.88525 20.63101 5105 ft 237 kts
2026-04-24 16:13 37.90129 20.63244 5022 ft 225 kts
2026-04-24 16:13 37.93134 20.63517 4655 ft 209 kts
2026-04-24 16:14 37.95941 20.63732 4205 ft 201 kts 355°
2026-04-24 16:14 37.97198 20.62991 3953 ft 201 kts 324°
2026-04-24 16:14 37.99337 20.61052 3774 ft 178 kts 327°
2026-04-24 16:15 38.00001 20.60466 3672 ft 174 kts 328°
2026-04-24 16:15 38.02272 20.58460 3111 ft 167 kts 327°
2026-04-24 16:16 38.04171 20.56639 2536 ft 173 kts 324°
2026-04-24 16:16 38.05124 20.55775 2309 ft 162 kts 328°
2026-04-24 16:17 38.07778 20.53574 1183 ft 136 kts 329°
2026-04-24 16:17 38.09327 20.52310 723 ft 132 kts 327°
2026-04-24 16:18 38.10859 20.51011 175 ft 130 kts 325°
2026-04-24 16:18 38.12120 20.49952 48 ft 64 kts 327°
2026-04-24 16:18 38.12295 20.49825 48 ft 1 kts 293°
2026-04-24 16:19 38.12220 20.49843 48 ft 19 kts 141°
2026-04-24 16:19 38.12056 20.50002 49 ft 38 kts 144°
2026-04-24 16:20 38.11869 20.50444 53 ft 9 kts 55°
2026-04-24 16:20 38.11870 20.50445 53 ft 0 kts 54°
2026-04-24 16:24 38.11869 20.50445 53 ft 0 kts 54°
2026-04-24 16:54 38.11869 20.50444 53 ft 0 kts 54°
2026-04-24 17:04 38.11868 20.50444 53 ft 0 kts 54°